Location: *
(42.0175°N, 9.4056°E)
Time: 05:36:25
(UTC+00:00)

SPOT 5 - Pass Details

Date: 25 August 2019
Orbit: 623 x 815 km, 98.3° (Epoch: 17 September)

Event Time Altitude Azimuth Distance (km) Brightness Sun altitude
Exits shadow 19:55:48 17° 62° (ENE) 1,594 4.4 -18.9°
Drops below altitude 10° 19:58:29 10° 23° (NNE) 2,016 5.3 -19.3°
Sets 20:01:21 0° 4° (N) 2,947 6.5 -19.8°
